Vertical_Velocity
-1 -1 1 3 -2 3 0 0 1 2 -0 -1 -2 -0 -0 -1 -0 -0 -0 -1 -0 -1 -1 -1 -1 -2 -1 -0 0 -1 -0 4 -4 -1 -9 3 6 -4 0 2 -2 -12 5 7 -7
-2 -0 -1 -2 5 -1 3 0 -0 1 2 -1 -1 -1 -0 0 -0 1 -2 -0 -1 -1 -1 -1 -1 -2 -2 -2 -1 -1 -1 -4 5 6 -4 7 1 2 -2 -3 -2 1 -1 3 4
-2 -0 -3 1 -5 2 -2 4 2 0 2 0 -1 -0 -2 -1 0 1 1 -1 -1 -1 -1 -1 -1 -1 -2 -2 -1 -0 -1 2 -0 5 -1 2 -2 3 -2 -3 -1 -2 1 1 0
1 -1 1 -0 0 -4 -1 0 4 2 2 1 -1 -1 -1 -1 0 -1 -1 -0 -0 -0 -1 -1 -0 -1 -2 -3 -3 -3 -2 -1 -1 1 -1 -0 2 2 2 -5 -4 0 6 -3 -3
-0 0 0 1 -1 2 -4 -2 1 4 1 1 -0 -2 -1 -2 3 1 1 0 -1 -0 -0 -1 -1 -3 -3 -3 -3 -1 -1 -1 -2 -0 -2 1 -0 -2 2 0 -1 1 1 -1 -1
-0 -2 -2 0 1 -1 3 -5 -1 1 1 -0 1 -1 -1 -2 0 0 1 1 -0 0 -0 -0 0 1 -2 -3 -3 -2 -2 -1 -1 -2 0 -1 -0 0 -3 -1 2 1 1 -1 -1
-2 -1 0 -5 0 2 -2 4 -6 0 -0 -0 0 -1 -0 2 1 2 1 1 -0 -1 -1 -1 -0 0 0 -2 -2 -2 -1 -2 -3 -1 -2 -0 1 4 -4 -1 3 2 1 0 1
-2 -1 2 2 2 -0 4 -0 3 -4 0 -1 0 0 -1 -3 2 2 2 1 0 -1 -0 -1 -0 -0 -1 -2 -1 -1 -2 -3 11 -6 2 -3 -1 -0 -3 2 1 2 3 1 0
-0 -1 1 2 1 2 1 2 1 1 -3 -2 -2 1 -2 -4 2 2 0 -0 0 1 0 1 0 0 -1 -2 -1 -1 -3 -3 2 -3 3 -4 0 5 -6 1 1 2 -1 1 1
-1 1 3 3 4 2 3 1 2 4 -4 2 -4 -1 2 1 -0 1 0 1 1 1 0 -1 0 0 -1 -0 -2 2 -4 -4 -10 9 -6 0 -2 5 -1 1 -2 0 2 0 1
2 5 6 3 7 -0 6 1 2 -2 11 -7 5 -1 -1 0 0 1 -0 1 1 1 -1 -2 0 -2 3 -0 -1 -3 -1 -2 -2 -1 -2 -5 6 -5 2 0 4 1 1 -0 -3
2 2 -0 2 3 8 6 1 14 -5 2 2 -4 -0 2 -2 0 1 -0 -0 1 1 -1 1 -4 8 -3 -1 1 -2 -2 -1 -5 2 -4 -5 2 -3 -0 4 1 1 0 -1 4
3 -0 2 1 -0 2 5 -1 2 -1 -7 4 -1 0 1 1 -3 4 -0 1 0 1 1 1 4 -3 0 -1 -0 -1 0 -1 -4 3 -4 -4 2 -1 -2 1 3 0 -0 0 2
4 3 0 -0 -7 8 11 6 7 -3 -12 -2 7 -11 1 -1 -7 2 -5 0 4 0 2 -5 13 -2 -0 -1 1 -2 -2 -1 -0 -3 -7 3 -9 3 1 -2 1 1 2 2 1
4 1 -1 3 -1 1 11 9 4 1 -18 7 3 19 2 -6 14 -6 1 2 2 1 3 -3 4 0 -3 3 -4 5 0 -0 -0 -2 -1 -2 -10 -1 2 0 1 -0 0 0 -0
5 3 -2 2 2 2 11 13 6 7 -25 -18 -3 6 5 -1 -5 -0 -1 0 5 3 -4 8 -2 -1 3 -3 1 -2 -1 -0 1 0 -1 -4 -4 -2 2 1 1 0 -0 -0 0
3 3 -4 2 6 1 8 16 14 -34 4 -3 2 8 4 2 1 -4 0 2 1 3 2 6 -2 4 0 0 0 -1 -0 -2 -1 -0 0 -1 -3 -4 2 -3 -0 0 0 -1 -1
3 1 -0 3 6 -1 22 20 -4 10 14 10 5 2 7 2 4 0 -1 0 3 0 1 -0 1 1 6 0 -0 -3 0 0 -4 -2 1 3 -4 -0 -1 -2 3 1 1 -0 -0
-2 5 -6 6 1 8 33 31 -23 29 10 6 8 -4 0 5 3 -2 4 -0 -1 3 -3 -2 3 1 1 0 -1 -1 1 -2 -2 -0 1 -1 2 -1 3 -1 -1 -1 0 -1 -1
3 1 -2 9 2 8 -2 -11 -7 9 11 3 10 1 1 5 -6 0 -3 5 2 4 1 1 2 3 1 -0 -1 -0 -3 -2 -1 -6 1 1 -2 6 -0 -1 -1 -0 -0 0 -0
1 -7 4 8 13 3 -17 -18 5 14 -4 11 13 -5 -0 3 8 2 -1 5 5 -1 1 3 2 4 0 1 1 -1 -0 -0 -2 -2 -3 1 -1 2 2 -2 -2 -2 -1 1 -2
9 -10 13 6 0 13 -12 3 21 11 5 -0 13 -0 8 7 4 -1 4 -6 6 3 3 -0 -0 -3 3 -2 0 1 -1 -2 -3 -1 -1 0 9 -4 -2 -1 1 0 2 1 -0
-3 -2 9 8 -21 -27 2 -9 13 8 -2 5 10 2 4 6 6 6 -8 9 2 2 4 3 -0 -1 1 -2 1 2 -1 -2 -3 -1 6 -4 3 -6 -1 -3 -0 0 -2 1 2
-2 -9 1 -4 -5 6 2 4 -11 9 5 3 9 9 1 -9 6 -3 5 2 3 -3 4 -1 2 -0 -0 -0 -0 -0 -1 -2 -3 -0 -2 6 -2 -1 -4 -0 4 -3 -3 -1 -2
-5 6 5 -8 -3 5 7 6 1 -2 4 2 4 -9 9 2 -2 -4 1 2 0 8 -4 -2 2 1 -1 -2 -2 -0 0 -3 -2 -4 -1 -2 9 -12 -4 1 -6 -4 -2 1 -1
-5 -0 9 7 2 -0 3 -4 5 7 -0 3 -1 7 4 3 12 14 11 1 -4 -0 -0 3 1 -0 -4 -1 -1 -3 1 -2 -0 0 5 -7 12 -7 -5 -2 -4 -3 -1 -0 -2
5 -2 0 22 10 21 -7 13 5 6 3 6 7 3 -6 14 -1 -7 11 0 -5 -2 2 -4 -0 0 -8 1 -5 -4 4 -6 2 -1 -1 3 -7 2 -4 -2 -5 -5 1 -2 -2
Height
5751 5750 5750 5751 5749 5748 5747 5747 5748 5748 5748 5748 5750 5750 5751 5752 5752 5752 5752 5752 5752 5752 5751 5751 5751 5751 5752 5753 5754 5754 5756 5760 5759 5760 5760 5766 5770 5770 5772 5774 5777 5776 5780 5789 5787
5745 5745 5744 5744 5745 5745 5744 5742 5743 5743 5744 5744 5744 5746 5747 5747 5747 5748 5747 5747 5747 5747 5747 5747 5746 5746 5746 5747 5747 5747 5749 5749 5752 5754 5754 5761 5761 5763 5766 5766 5769 5771 5774 5778 5781
5737 5737 5737 5738 5737 5739 5740 5739 5737 5738 5739 5739 5739 5740 5741 5742 5743 5743 5743 5742 5742 5743 5743 5742 5742 5742 5742 5742 5742 5742 5743 5743 5746 5748 5748 5750 5752 5755 5757 5757 5760 5763 5768 5771 5773
5729 5729 5729 5729 5730 5730 5733 5734 5734 5732 5733 5734 5733 5734 5735 5737 5740 5738 5738 5738 5739 5739 5739 5739 5739 5738 5738 5737 5738 5738 5738 5739 5740 5741 5740 5742 5745 5748 5748 5748 5752 5756 5763 5761 5762
5720 5720 5721 5721 5721 5723 5724 5726 5728 5728 5726 5727 5727 5727 5729 5731 5733 5733 5734 5735 5735 5735 5736 5736 5735 5735 5734 5734 5734 5734 5734 5734 5735 5736 5735 5736 5737 5739 5742 5741 5745 5748 5752 5753 5755
5709 5710 5711 5712 5712 5713 5715 5717 5719 5721 5721 5720 5721 5721 5722 5725 5726 5728 5730 5731 5731 5731 5731 5732 5732 5731 5731 5730 5731 5730 5730 5730 5730 5730 5731 5731 5731 5733 5734 5734 5739 5741 5743 5746 5748
5696 5697 5698 5700 5702 5703 5704 5706 5710 5712 5713 5713 5713 5715 5716 5718 5720 5722 5724 5725 5726 5726 5727 5727 5728 5728 5727 5726 5726 5726 5726 5726 5725 5724 5725 5725 5726 5727 5726 5728 5732 5733 5735 5738 5741
5684 5684 5683 5686 5688 5691 5693 5694 5698 5702 5704 5705 5705 5707 5709 5710 5713 5716 5718 5719 5720 5721 5722 5723 5723 5723 5723 5722 5722 5722 5721 5720 5720 5718 5719 5719 5719 5720 5721 5722 5724 5726 5729 5731 5733
5668 5668 5669 5671 5673 5676 5680 5682 5684 5689 5694 5695 5697 5699 5702 5703 5707 5708 5711 5713 5715 5716 5717 5717 5718 5719 5718 5718 5718 5717 5716 5715 5716 5713 5713 5712 5712 5715 5713 5715 5717 5719 5721 5722 5725
5651 5650 5651 5653 5657 5661 5665 5669 5672 5675 5681 5685 5687 5692 5695 5697 5698 5701 5703 5706 5709 5710 5712 5712 5713 5713 5714 5714 5713 5712 5710 5710 5709 5709 5707 5706 5705 5706 5706 5709 5709 5711 5713 5715 5717
5631 5629 5631 5633 5640 5643 5650 5655 5659 5662 5667 5674 5677 5681 5686 5688 5690 5693 5695 5698 5701 5704 5705 5706 5707 5708 5708 5708 5708 5707 5706 5705 5704 5703 5702 5701 5700 5699 5700 5701 5702 5704 5706 5708 5710
5613 5614 5615 5618 5622 5624 5632 5638 5645 5647 5653 5659 5665 5670 5677 5678 5682 5684 5687 5691 5693 5696 5698 5700 5700 5703 5702 5703 5703 5702 5701 5700 5699 5698 5697 5696 5695 5695 5694 5696 5697 5698 5699 5701 5705
5599 5599 5601 5603 5605 5609 5615 5623 5629 5633 5637 5647 5652 5658 5667 5671 5672 5676 5679 5682 5685 5687 5690 5692 5696 5695 5696 5697 5697 5697 5695 5694 5694 5693 5692 5690 5690 5690 5690 5690 5691 5692 5693 5695 5698
5586 5586 5588 5589 5592 5598 5603 5607 5614 5619 5622 5635 5642 5646 5654 5660 5662 5668 5669 5674 5677 5678 5681 5684 5689 5688 5690 5691 5692 5691 5690 5689 5688 5687 5686 5686 5684 5685 5685 5685 5686 5687 5688 5690 5690
5571 5573 5574 5577 5579 5585 5593 5595 5599 5605 5608 5623 5632 5638 5644 5651 5655 5658 5661 5665 5668 5670 5673 5677 5680 5682 5683 5686 5685 5687 5685 5684 5682 5680 5679 5678 5677 5677 5679 5679 5680 5681 5682 5683 5685
5557 5560 5561 5564 5568 5573 5578 5584 5587 5592 5596 5608 5620 5627 5635 5640 5644 5649 5651 5656 5660 5661 5663 5669 5671 5674 5679 5678 5679 5680 5680 5679 5677 5674 5672 5672 5671 5670 5673 5673 5674 5674 5676 5677 5678
5541 5545 5548 5552 5559 5562 5568 5571 5574 5574 5592 5601 5611 5618 5624 5630 5634 5638 5642 5646 5650 5653 5656 5661 5663 5667 5670 5672 5673 5674 5674 5673 5672 5668 5667 5665 5665 5664 5667 5666 5668 5669 5670 5671 5672
5525 5529 5535 5539 5546 5552 5557 5558 5557 5577 5583 5590 5601 5609 5615 5620 5625 5629 5633 5637 5641 5645 5648 5652 5656 5659 5663 5665 5666 5667 5669 5668 5664 5662 5662 5661 5659 5661 5660 5659 5662 5662 5663 5664 5665
5507 5514 5519 5527 5533 5538 5542 5540 5549 5565 5572 5579 5588 5598 5605 5611 5616 5620 5625 5629 5633 5637 5641 5644 5648 5652 5654 5656 5660 5662 5662 5662 5660 5659 5657 5656 5656 5655 5655 5654 5655 5656 5657 5658 5658
5490 5497 5506 5515 5520 5523 5523 5532 5541 5550 5558 5566 5578 5587 5595 5601 5607 5612 5616 5622 5626 5630 5632 5637 5641 5644 5646 5649 5652 5655 5656 5656 5655 5653 5653 5652 5651 5651 5649 5649 5649 5649 5651 5651 5652
5471 5479 5493 5502 5506 5507 5512 5524 5531 5541 5545 5555 5566 5573 5583 5592 5597 5603 5609 5614 5618 5622 5625 5629 5632 5638 5639 5643 5645 5647 5649 5649 5649 5649 5647 5647 5647 5646 5645 5643 5643 5644 5645 5644 5643
5456 5463 5479 5488 5493 5497 5506 5518 5524 5531 5536 5543 5556 5563 5572 5580 5588 5595 5600 5605 5610 5614 5618 5621 5623 5628 5633 5634 5636 5639 5641 5641 5641 5643 5642 5641 5644 5638 5637 5636 5637 5638 5637 5635 5634
5444 5452 5463 5471 5476 5488 5499 5506 5511 5519 5525 5534 5544 5551 5561 5569 5578 5586 5589 5598 5602 5605 5610 5613 5616 5620 5624 5627 5629 5632 5633 5633 5633 5635 5637 5634 5636 5633 5630 5630 5629 5629 5627 5625 5625
5434 5440 5450 5461 5468 5481 5490 5497 5502 5512 5516 5523 5533 5541 5550 5556 5566 5573 5581 5588 5593 5597 5601 5604 5608 5611 5615 5618 5622 5624 5625 5625 5626 5628 5626 5631 5625 5625 5622 5623 5624 5621 5618 5616 5614
5426 5433 5443 5451 5463 5470 5480 5488 5495 5501 5509 5513 5521 5531 5543 5548 5555 5561 5571 5578 5583 5589 5592 5596 5600 5603 5605 5609 5612 5615 5617 5618 5619 5619 5619 5621 5621 5617 5613 5614 5613 5611 5609 5607 5605
5420 5427 5435 5447 5452 5459 5467 5477 5486 5494 5501 5508 5514 5522 5531 5538 5547 5553 5561 5567 5571 5578 5582 5587 5590 5594 5597 5600 5603 5606 5608 5610 5611 5612 5610 5610 5614 5607 5608 5605 5602 5601 5599 5598 5594
5416 5419 5426 5437 5443 5450 5460 5470 5479 5487 5495 5500 5506 5512 5519 5531 5535 5541 5548 5554 5562 5567 5572 5577 5581 5586 5589 5592 5594 5597 5602 5601 5603 5602 5602 5603 5601 5601 5599 5597 5595 5592 5590 5586 5582